DECAYED

COSMOS 2251 DEB, 34951 (Decayed)

Orbit data source: Space-Track

COSMOS 2251 DEB, 34951 was space debris in LEO originally from a launch on Wed, 16 Jun 1993 UTC launched from the Plesetsk Missile And Space Complex (PKMTR). The debris from Iridium 33, an American commercial communications satellite, has been tracked extensively since its accidental collision with the defunct Russian satellite Cosmos 2251 in 2009. This event, occurring at high speed in low Earth orbit (LEO), generated thousands of pieces of space debris, significantly increasing the risk of further collisions. The Iridium 33 debris cloud has impacted space traffic management and orbital debris mitigation strategies, making it a subject of ongoing study in space situational awareness.

Not visible in the next 10 days
Identifier
34951, 1993-036AEE
Orbit
Decayed
Country
Flag of CISCIS
Related business
Manufacturer
Unknown
Mission
Decayed spacecraft
Bus & Motor
Unknown
Mass
Unknown
Launch date (UTC)
1993-06-16 (32 years ago)
Launch vehicle
Unknown
Launch site
Plesetsk Missile And Space Complex (PKMTR)
Object type
Payload
Rocket body
Debris
Shape & HBR
Unknown shape, 0.1 m
Radar Cross Section
Small (<0.1 m²)

Expand to show TLE details & history
Last TLE update: 3 weeks ago

TLE from 3 weeks ago
0 COSMOS 2251 DEB
1 34951U 93036AEE 25288.92573613  .01428895  00000-0  64073-2 0  9993
2 34951  73.9702 158.2573 0012311 198.1726 161.9065 15.81387046879909
Epoch: 2025-10-15T22:13Z
TLE epoch observation values (Epoch: 2025-10-15T22:13:03.601Z)
Latitude
-0.00003°
Longitude
160.29947°
Altitude
337.146 km
Speed
7.702 km/s
True Right ascension
10h 33m 01s
True Declination
0° 00' 00"
Sunlit
Object was in daylight at epoch
Visualization orbit readout
Latitude
Unknown
Longitude
Unknown
Altitude
Unknown
Speed
Unknown
Apparent Right ascension
Unknown
Apparent Declination
Unknown
Sunlit
N/A
Visualization observer readout
Local Sidereal Time
00:26:02
Azimuth
Unknown
Elevation
Unknown
Doppler factor
Unknown
Orbital elements
Apogee altitude
332.24 km
Perigee altitude
315.738 km
Semi-major axis
6,702.126 km
Eccentricity
0.00123
Inclination
73.9702°
RAAN
158.2573°
Arg. of periapsis
198.1726°
True anomaly
161.95025°
Mean anomaly
161.9065°
Eccentric anomaly
161.92838°
Mean motion
3.95571 °/min
Orbital period
91.01 mins
BSTAR
0.0064073
Loading maneuver chart data...
Computing Atmospheric mass density...

Documentation

Showing up to 5 results
|